量子界

量子谷/量子界论坛 - 分享是一种快乐!(中文字幕/百度网盘/迅雷下载)

 找回密码
 立即注册
收藏本版 |订阅

参数查询 今日: 11 |主题: 1527|排名: 10 

作者 回复/查看 最后发表
风车惨案 The.Windmill.Massacre.1080p.BluRay.REMUX- 2 字幕、种子均不提供下载 不提供下载 2017-3-3 040 不提供下载 2017-3-3 09:56
通道 The.Channel.1080p.BluRay.REMUX-.2.0 17.8GB 字幕、种子均不提供下载 不提供下载 2017-3-3 023 不提供下载 2017-3-3 09:56
附属美丽 Collateral.Beauty.1080p.BluRay- 32.6GB 字幕、种子均不提供下载 不提供下载 2017-3-3 051 不提供下载 2017-3-3 09:56
[神奇动物在哪里(高码版)]2016.BluRay.720P-CNXP[国英双语/中英字幕/5.5G] 字幕、种子 ... 不提供下载 2017-3-3 081 不提供下载 2017-3-3 09:55
[神奇动物在哪里]2016.BluRay.720p-CNXP[国英双语/中英字幕/3.5G] 字幕、种子均不提供 ... 不提供下载 2017-3-3 089 不提供下载 2017-3-3 09:55
附属美丽 Collateral.Beauty.BluRay.1080p- 12.73G 字幕、种子均不提供下载 不提供下载 2017-3-3 040 不提供下载 2017-3-3 09:55
太空旅客/太空潜航者/星际过客[韩版]Passengers.720p.HDRip2.0-STU 2.6GB 字幕、种子 ... 不提供下载 2017-2-4 7290 tone88393119 2017-3-2 16:18
失去了猫电晕 Lost.Cat.Corona.1080p.WEB-DL 3.28GB 字幕、种子均不提供下载 不提供下载 2017-3-2 094 不提供下载 2017-3-2 14:05
最萌身高差/我的哈比情人[简繁中字].Up.For.Love.BluRay.720p-NowYS 4.08GB 字幕、种 ... 不提供下载 2017-1-11 1644 xuehao 2017-3-1 14:35
上升的恐惧 Rising.Fear.1080p.WEB-DL 3.25GB 字幕、种子均不提供下载 不提供下载 2017-3-1 060 不提供下载 2017-3-1 12:05
黑暗弥漫 The.Creature.Below.1080p.WEB-DL 2.8GB 字幕、种子均不提供下载 不提供下载 2017-3-1 0222 不提供下载 2017-3-1 12:05
别挂电话 Dont.Hang.Up.1080p.WEB-DL 2.88GB 字幕、种子均不提供下载 不提供下载 2017-3-1 055 不提供下载 2017-3-1 12:04
舍弃 Deserted.1080p.WEB-DL2.0 3.15GB 字幕、种子均不提供下载 不提供下载 2017-3-1 038 不提供下载 2017-3-1 12:04
太空旅客/太空潜航者 Passengers.720p.BluRay-SPARKS 5.48GB 字幕、种子均不提供下载 不提供下载 2017-3-1 061 不提供下载 2017-3-1 12:04
太空旅客/太空潜航者 Passengers.1080p.BluRay-SPARKS 8.76GB 字幕、种子均不提供下载 不提供下载 2017-3-1 047 不提供下载 2017-3-1 12:04
不死警官 Officer.Downe.720p.BluRay-PSYCHD 4.38GB 字幕、种子均不提供下载 不提供下载 2017-3-1 042 不提供下载 2017-3-1 12:04
不死警官 Officer.Downe.1080p.BluRay-PSYCHD 6.57GB 字幕、种子均不提供下载 不提供下载 2017-3-1 048 不提供下载 2017-3-1 12:04
藩篱/篱笆内的风暴 Fences.1080p.WEB-DL 4.8GB 字幕、种子均不提供下载 不提供下载 2017-2-25 2264 hypls 2017-3-1 11:57
月光男孩/月亮喜欢蓝 Moonlight.1080p.BluRay- 8.4GB 字幕、种子均不提供下载 不提供下载 2017-2-18 2132 iamwhatiam 2017-2-28 21:08
2017奥斯卡真人短片提名合集 2017.1080p.WEB-DL2.0 4.9GB 字幕、种子均不提供下载 不提供下载 2017-2-28 1189 米拉达诺 2017-2-28 10:36
2017奥斯卡动画短片提名合集 2017.1080p.WEB-DL2.0 3.38GB 字幕、种子均不提供下载 不提供下载 2017-2-28 0184 不提供下载 2017-2-28 09:28
神奇动物在哪里 2016 1080p Blu-ray AVC TrueHD 7.1 [email protected] 46.55G 字幕、 ... 不提供下载 2017-2-28 060 不提供下载 2017-2-28 09:25
克里斯汀 Christine.1080p.BluRay- 28.8 GB 字幕、种子均不提供下载 不提供下载 2017-2-28 037 不提供下载 2017-2-28 09:25
月光男孩 Moonlight.1080p.BluRay 11.1G 字幕、种子均不提供下载 不提供下载 2017-2-28 069 不提供下载 2017-2-28 09:24
检查站/核对点 Check.Point.1080p.BluRay-HR 16.3GB 字幕、种子均不提供下载 不提供下载 2017-2-24 187 ok00 2017-2-27 23:07
友军倒下/迷途 Man.Down.2015.1080p.BluRay- 21.50 GB 字幕、种子均不提供下载 不提供下载 2017-2-27 071 不提供下载 2017-2-27 09:40
卢瑟之家 Loserville.1080p.WEB-DL 3.44GB 字幕、种子均不提供下载 不提供下载 2017-2-27 049 不提供下载 2017-2-27 09:40
假期分手 Holiday.Breakup.1080p.WEB-DL 3.43GB 字幕、种子均不提供下载 不提供下载 2017-2-27 039 不提供下载 2017-2-27 09:39
伴郎游戏 Bachelor.Games.1080p.WEB-DL 2.98GB 字幕、种子均不提供下载 不提供下载 2017-2-27 050 不提供下载 2017-2-27 09:39
流浪猫鲍勃 2016.1080p.BluRay- 8.61GB 字幕、种子均不提供下载 不提供下载 2017-2-27 045 不提供下载 2017-2-27 09:39
别敲两次门 Dont.Knock.Twice.2016.720p.BluRay-JustWatch 4.37GB 字幕、种子均不提供 ... 不提供下载 2017-2-27 085 不提供下载 2017-2-27 09:25
别敲两次门 Dont.Knock.Twice.2016.1080p.BluRay-JustWatch 7.65GB 字幕、种子均不提 ... 不提供下载 2017-2-27 054 不提供下载 2017-2-27 09:25
情人节恋事 It.Happened.One.Valentines.1080p.WEB-DL 3.5GB 字幕、种子均不提供下载 不提供下载 2017-2-27 043 不提供下载 2017-2-27 09:25
无处为家 I.Dont.Feel.at.Home.720p.NF.WEBRip-SB 3.16GB 字幕、种子均不提供下载 不提供下载 2017-2-27 077 不提供下载 2017-2-27 09:25
美国暴力 American.Violence.1080p.BluRay- 23GB 字幕、种子均不提供下载 不提供下载 2017-2-27 068 不提供下载 2017-2-27 09:25
神奇动物在哪里 2016.720p.BluRay 7.34GB 字幕、种子均不提供下载 不提供下载 2017-2-26 257 lilei198365 2017-2-26 21:48
性别大错位 Sam.2015.1080p.WEB-DL 4.04GB 字幕、种子均不提供下载 不提供下载 2017-2-25 2147 defy263 2017-2-26 20:18
针扎 Needlestick.2017.1080p.WEB-DL 3.32GB 字幕、种子均不提供下载 不提供下载 2017-2-25 162 yauman2002 2017-2-26 16:52
神奇动物在哪里 2016.1080p.BluRay 12.8GB 字幕、种子均不提供下载 不提供下载 2017-2-26 073 不提供下载 2017-2-26 11:34
谜室 Riddle.Room.1080p.WEB-DL 3GB 字幕、种子均不提供下载 不提供下载 2017-2-26 050 不提供下载 2017-2-26 11:34
从心始原 Hard.Sell.1080p.WEB-DL2.0 3.09GB 字幕、种子均不提供下载 不提供下载 2017-2-26 043 不提供下载 2017-2-26 11:34
一路顺风 Godspeed.1080p.BluRay 11.00GB 字幕、种子均不提供下载 不提供下载 2017-2-26 042 不提供下载 2017-2-26 11:33
梦土/迷情梦境手指尖的迷情 Dreamland.1080p.WEB-DL 3.1GB 字幕、种子均不提供下载 不提供下载 2017-2-26 064 不提供下载 2017-2-26 11:33
一路顺风 Godspeed.720p.BluRay 5.47GB 字幕、种子均不提供下载 不提供下载 2017-2-26 047 不提供下载 2017-2-26 11:33
一路顺风 Godspeed.1080p.BluRay 11GB 字幕、种子均不提供下载 不提供下载 2017-2-26 047 不提供下载 2017-2-26 11:32
血浓于罪 Trespass.Against.Us.1080p.BluRay- 37.9GB 字幕、种子均不提供下载 不提供下载 2017-2-26 043 不提供下载 2017-2-26 11:32
血战钢锯岭 Hacksaw.Ridge.1080p.BluRay 14.1G 字幕、种子均不提供下载 不提供下载 2017-2-15 194 byronwu2003 2017-2-25 22:39
间谍同盟/伴谍同盟 Allied.1080p.WEB-DL 4.3GB 字幕、种子均不提供下载 不提供下载 2017-2-15 1149 WYXDYA 2017-2-25 21:25
名侦探柯南:纯黑的恶梦[国粤日三语/中字]2016.1080p.BluRay 7.95GB 字幕、种子均不提 ... 不提供下载 2017-2-22 198 湘宜智能影音 2017-2-25 15:49
太空旅客/太空潜航者/星际过客 Passengers.1080p.WEB-DL 3.97GB 字幕、种子均不提供下 ... 不提供下载 2017-2-25 088 不提供下载 2017-2-25 11:55
下一页 »

快速发帖

还可输入 80 个字符
您需要登录后才可以发帖 登录 | 立即注册

本版积分规则

Archiver|手机版|小黑屋|量子谷/量子界论坛 - 分享是一种快乐!   | 联系我们

GMT+8, 2017-3-23 18:16 , Processed in 0.206878 second(s), 16 queries .

Powered by Discuz! X3.1

© 2001-2013 Comsenz Inc.

返回顶部 返回版块